Flag for Belgium Weather past 2 weeks in Mechelen, Belgium

Now
45 °F

Clear.


Feels Like: 45 °F
Forecast: 40 / 61 °F
Wind: 1 mph from North

Location: Brussels National Airport

Current Time: Apr 21, 2015 at 3:46:44 AM

Latest Report: Apr 21, 2015 at 2:50 AM


Visibility: 10 mi

Pressure: 30.42 "Hg

Humidity: 87%

Dew point: 41 °F

Location of MechelenLocation

Historic Weather in Mechelen — Graph

°F

Mechelen temperature yesterday

Maximum temperature yesterday: 64 °F (at 3:20 PM)
Minimum temperature yesterday: 37 °F (at 7:20 AM)
Average temperature yesterday: 52 °F

Past Weeks' High & Low Weather Summary

 TemperatureHumidityPressure
High75 °F (Apr 15, 3:50 PM)100% (Apr 8, 6:50 AM)30.66 "Hg (Apr 8, 6:50 AM)
Low32 °F (Apr 6, 3:50 AM)27% (Apr 10, 4:50 PM)29.92 "Hg (Apr 16, 5:50 PM)
Average50 °F68%30.27 "Hg
* Reported Apr 6 2:20 AM — Apr 21 2:20 AM, Mechelen, Weather by CustomWeather, © 2015

Note: Actual official high and low records may vary slightly from our data, if they occured in-between our weather recording intervals... More about our weather records

Advertising

Mechelen weather history for previous 24 hours

 ConditionsComfort  
Time TempWeatherWind HumidityBarometerVisibility
2:20 AM
Tue, Apr 21
46 °FClear.3 mph82%30.42 "Hg10 mi
1:50 AM46 °FClear.3 mph82%30.42 "Hg10 mi
1:20 AM46 °FClear.5 mph82%30.42 "Hg10 mi
12:50 AM46 °FClear.5 mph76%30.39 "Hg10 mi
12:20 AM48 °FPassing clouds.3 mph71%30.39 "HgN/A
11:50 PM
Mon, Apr 20
50 °FClear.2 mph67%30.39 "Hg10 mi
11:20 PM50 °FClear.2 mph62%30.39 "Hg10 mi
10:50 PM48 °FClear.5 mph66%30.39 "Hg10 mi
10:20 PM50 °FClear.5 mph71%30.39 "Hg10 mi
9:50 PM52 °FClear.8 mph67%30.39 "Hg10 mi
9:20 PM52 °FSunny.7 mph67%30.39 "Hg10 mi
8:50 PM55 °FSunny.8 mph59%30.36 "Hg10 mi
8:20 PM57 °FSunny.8 mph51%30.36 "Hg10 mi
7:50 PM59 °FSunny.8 mph42%30.36 "Hg10 mi
7:20 PM61 °FSunny.8 mph45%30.33 "Hg10 mi
6:50 PM63 °FSunny.8 mph37%30.36 "Hg10 mi
6:20 PM64 °FSunny.9 mph34%30.36 "Hg10 mi
5:50 PM64 °FPassing clouds.10 mph37%30.36 "HgN/A
5:20 PM64 °FPassing clouds.9 mph37%30.36 "HgN/A
4:50 PM64 °FPassing clouds.10 mph37%30.36 "HgN/A
4:20 PM64 °FPassing clouds.8 mph40%30.36 "HgN/A
3:50 PM64 °FPassing clouds.8 mph37%30.36 "HgN/A
3:20 PM64 °FPassing clouds.8 mph37%30.36 "HgN/A
2:50 PM63 °FPassing clouds.7 mph42%30.36 "HgN/A
2:20 PM63 °FPassing clouds.7 mph37%30.36 "HgN/A
1:50 PM63 °FPassing clouds.7 mph42%30.36 "HgN/A
1:20 PM61 °FPassing clouds.8 mph48%30.36 "HgN/A
12:50 PM61 °FPassing clouds.7 mph48%30.36 "HgN/A
12:20 PM59 °FPassing clouds.7 mph51%30.36 "HgN/A
11:50 AM57 °FPassing clouds.6 mph51%30.36 "HgN/A
11:20 AM55 °FPassing clouds.6 mph59%30.36 "HgN/A
10:50 AM54 °FPassing clouds.7 mph58%30.36 "HgN/A
10:20 AM54 °FPassing clouds.6 mph63%30.36 "HgN/A
9:50 AM50 °FSunny.2 mph67%30.33 "Hg10 mi
9:20 AM48 °FPassing clouds.3 mph66%30.33 "HgN/A
8:50 AM45 °FSunny.5 mph76%30.33 "Hg10 mi
8:20 AM43 °FSunny.3 mph81%30.33 "Hg10 mi
7:50 AM41 °FSunny.2 mph87%30.30 "Hg10 mi
7:20 AM37 °FClear.3 mph93%30.30 "Hg10 mi
6:50 AM39 °FClear.2 mph87%30.27 "Hg10 mi
6:20 AM39 °FClear.1 mph81%30.27 "Hg10 mi
5:50 AM39 °FClear.1 mph87%30.27 "Hg10 mi
5:20 AM41 °FClear.2 mph81%30.27 "Hg10 mi
4:50 AM41 °FClear.3 mph81%30.24 "Hg10 mi
4:20 AM41 °FClear.2 mph76%30.24 "Hg10 mi
3:50 AM43 °FClear.1 mph71%30.24 "Hg10 mi
3:20 AM41 °FClear.1 mph81%30.24 "Hg10 mi
Weather by CustomWeather, © 2015

See weather overviewHow to use our weather pages